Flag for Argentina Weather past 2 weeks in Resistencia, Chaco, Argentina

Now
72 °F

Sunny.


Feels Like: 74 °F
Forecast: 63 / 85 °F
Wind: 10 mph from Northeast

Location: Resistencia Aero.

Current Time: Aug 20, 2014 at 10:02:46 AM

Latest Report: Aug 20, 2014 at 9:00 AM


Visibility: 10 mi

Pressure: 30.07 "Hg

Humidity: 73%

Dew point: 63 °F

Location of ResistenciaLocation

Historic Weather in Resistencia — Graph

°F

Resistencia temperature yesterday

Maximum temperature yesterday: 86 °F (at 2:00 PM)
Minimum temperature yesterday: 61 °F (at 6:00 AM)
Average temperature yesterday: 73 °F

Past Weeks' High & Low Weather Summary

 TemperatureHumidityPressure
High86 °F (Aug 6, 3:00 PM)100% (Aug 8, 4:00 AM)30.51 "Hg (Aug 8, 4:00 AM)
Low34 °F (Aug 14, 8:00 AM)39% (Aug 14, 1:00 PM)29.77 "Hg (Aug 6, 3:00 PM)
Average63 °F74%30.11 "Hg
* Reported Aug 5 8:00 AM — Aug 20 8:00 AM, Resistencia, Weather by CustomWeather, © 2014

Note: Actual official high and low records may vary slightly from our data, if they occured in-between our weather recording intervals... More about our weather records

Advertising

Resistencia weather history for previous 24 hours

 ConditionsComfort  
Time TempWeatherWind HumidityBarometerVisibility
8:00 AM
Aug 20
66 °FClear.7 mph83%30.04 "Hg5 mi
7:00 AM64 °FSunny.5 mph88%30.04 "Hg10 mi
6:00 AM64 °FClear.6 mph94%30.04 "Hg10 mi
3:00 AM64 °FClear.6 mph94%30.04 "Hg10 mi
12:00 AM70 °FClear.7 mph83%30.07 "Hg10 mi
9:00 PM
Aug 19
73 °FClear.6 mph78%30.04 "Hg10 mi
8:00 PM75 °FClear.6 mph74%30.04 "Hg10 mi
7:00 PM77 °FClear.7 mph69%30.04 "Hg10 mi
6:00 PM81 °FClear.9 mph62%30.01 "Hg10 mi
5:00 PM84 °FSunny.8 mph58%30.01 "Hg10 mi
4:00 PM84 °FSunny.7 mph58%30.01 "Hg10 mi
3:00 PM86 °FSunny.5 mph55%30.04 "Hg10 mi
2:00 PM86 °FSunny.8 mph52%30.07 "Hg10 mi
1:00 PM84 °FSunny.8 mph55%30.09 "Hg10 mi
12:00 PM81 °FSunny.6 mph58%30.09 "Hg10 mi
11:00 AM77 °FSunny.7 mph61%30.12 "Hg10 mi
10:00 AM73 °FSunny.7 mph74%30.12 "Hg10 mi
Weather by CustomWeather, © 2014

See weather overviewHow to use our weather pages